Find Kosmos-1135

NORAD ID: 11543 Int'l Des: 1979-084 Owner: GUKOSR Country: SU operational
LEOCIRCULAR

当前视图

正在加载3D地球...

关于 Kosmos-1135

正在加载描述...

即将过境

Passes for default location (London). Set your location on the main map for personalized predictions.

高度历史

Loading altitude history...

两行轨道根数

1 11543U 79084F 26151.08149963 -.00000033 00000-0 -11779-3 0 9993
2 11543 74.0230 111.2755 0019951 261.2834 175.1216 12.47103770125053
Epoch: May 31, 2026 • Age: 8 hours

当前状态

高度 1483.5 km
速度 7.12 km/s
星下点 24.49°N, 116.68°W
发射日期 Sep 25, 1979
运行时间 46.6 years
类型 other

技术详情

分类 Payload
质量 60.00 kg
干质量 60.00 kg
总质量 60.00 kg
长度 0.80 m
直径 0.80 m
跨度 0.80 m
形状 Poly
制造商 NPOPM
平台类型 Strela-1 11F625
阶段状态 In Orbit
所有者/国家 GUKOSR/SU

Most Searched